Tracking 28125 objects as of 2-Oct-2023
HD Live streaming from Space Station
objects crossing your sky now

STARLINK-5631

Track STARLINK-5631 now!
10-day predictions
STARLINK-5631 is classified as:


NORAD ID: 55346
Int'l Code: 2023-013R
Perigee: 565.3 km
Apogee: 567.1 km
Inclination: 43.0 °
Period: 95.8 minutes
Semi major axis: 6937 km
RCS: Unknown
Launch date: January 26, 2023
Source: United States (US)
Launch site: AIR FORCE EASTERN TEST RANGE (AFETR)
Your satellite tracking list
Your tracking list is empty




NASA's NSSDC Master Catalog

Two Line Element Set (TLE):
1 55346U 23013R   23275.84496349 -.00000265  00000-0 -45166-5 0  9990
2 55346  43.0033  90.1025 0001284 268.9438  91.1257 15.02538838 38436
Source of the keplerian elements: AFSPC